Regional Weather Roundup
Issued by NWS Columbia, SC

Home | Current Version | Previous Version | Text Only | Print | Product List | Glossary On
Versions: 1 2 3 4 5 6 7 8 9 10 11 12 13 14 15 16 17 18 19 20 21 22 23 24 25 26 27 28
000
ASUS42 KCAE 221510
RWRCAE
REGIONAL WEATHER ROUNDUP
NATIONAL WEATHER SERVICE COLUMBIA SC
1100 AM EDT SUN APR 22 2018

NOTE: "FAIR" INDICATES FEW OR NO CLOUDS BELOW 12,000 FEET WITH NO
SIGNIFICANT WEATHER AND/OR OBSTRUCTIONS TO VISIBILITY.

NOT ALL STATIONS ARE QUALITY CONTROLLED BY THE NATIONAL
WEATHER SERVICE. USE DATA WITH CAUTION...ESPECIALLY
DEWPOINT OBSERVATIONS.

SCZ001>056-GAZ040-063>065-077-221600-
...UPSTATE SOUTH CAROLINA...

CITY           SKY/WX    TMP DP  RH WIND       PRES   REMARKS
ANDERSON       PTSUNNY   62  52  69 E10       30.29F
LIBERTY        CLOUDY    58  51  76 NE3       30.30F
SPARTANBURG    FAIR      59  46  63 E6        30.32S
CLEMSON        CLOUDY    59  50  72 NE5       30.31F
GREENVILLE     FAIR      63  51  65 E6        30.32F
GREENWOOD      FAIR      66  52  60 E9        30.31F
GREER          FAIR      60  49  66 VRB6      30.33S
ROCK HILL      CLOUDY    63  46  54 SE6       30.34F
CHESTER        FAIR      63  41  45 SE7       30.35S
LAURENS        FAIR      64  48  55 SE9       30.31S


...CENTRAL SOUTH CAROLINA...

CITY           SKY/WX    TMP DP  RH WIND       PRES   REMARKS
COLUMBIA APT   PTSUNNY   67  52  58 SE12      30.32S
COLUMBIA OWENS FAIR      66  48  52 VRB6      30.33F
MCENTIRE ANGB  CLOUDY    66  49  55 E7        30.32F
ORANGEBURG     PTSUNNY   68  48  48 E10       30.31S
SUMTER SHAW    PTSUNNY   65  49  56 E8        30.31F
AIKEN          FAIR      68  52  56 E15       30.33S
BARNWELL       FAIR      70  52  52 E12G17    30.30S
MANNING        CLOUDY    63  50  63 E3        30.33F
CAMDEN         CLOUDY    64  46  52 SE8       30.35S
LANCASTER      PTSUNNY   64  45  48 E8        30.34F
WINNSBORO      CLOUDY    61  48  63 SE9       30.33S


...EASTERN AND COASTAL SOUTH CAROLINA...

CITY           SKY/WX    TMP DP  RH WIND       PRES   REMARKS
MYRTLE BEACH   FAIR      67  54  63 E15G23    30.37R
N MYRTLE BCH   FAIR      69  52  54 E13G21    30.36R
CONWAY         FAIR      68  48  49 E8G16     30.35S HAZE
MARION         PTSUNNY   66  50  55 E8        30.35F
HARTSVILLE     PTSUNNY   64  45  48 SE6       30.35S
FLORENCE       PTSUNNY   68  50  52 E8        30.35S
DARLINGTON     FAIR      67  48  50 SE7       30.36S
CHARLESTON APT FAIR      71  52  50 E17       30.30S
MOUNT PLEASANT FAIR      72  55  56 SE9       30.31S
WALTERBORO     FAIR      70  54  56 SE13G20   30.31S
BEAUFORT       PTSUNNY   72  57  59 SE18G25   30.28


...EASTERN GEORGIA...

CITY           SKY/WX    TMP DP  RH WIND       PRES   REMARKS
AUGUSTA BUSH F FAIR      70  55  59 SE9       30.28S
AUGUSTA DANIEL FAIR      69  53  56 E12       30.29S
THOMSON        FAIR      67  54  64 S5        30.32S
WASHINGTON     FAIR      64  54  68 SE6G16    30.27S
CLAXTON        FAIR      71  58  63 E8        30.26S
SYLVANIA       PTSUNNY   72  61  68 SE9       30.28S
STATESBORO     CLOUDY    71  53  52 E9        30.26F
SAVANNAH       CLOUDY    73  55  53 E21G29    30.27R


...SOUTHERN NORTH CAROLINA...

CITY           SKY/WX    TMP DP  RH WIND       PRES   REMARKS
CHARLOTTE      CLOUDY    64  47  53 SE10      30.35S
MONROE         FAIR      64  43  46 VRB5      30.34S
WADESBORO      FAIR      65  43  44 E6        30.36S
ROCKINGHAM     FAIR      65  46  49 E5        30.36F
RUTHERFORDTON  CLOUDY    56  51  81 CALM      30.35R
ASHEVILLE      CLOUDY    56  47  71 SE3       30.33R

$$




USA.gov is the U.S. government's official web portal to all federal, state and local government web resources and services.